This is the latest recevied weather packets stored in our database for station/object DL0GY-13. If no packets are shown the sender has not sent any weather packets the latest 10 day(s).
| Time | Temp. | Humidity | Pressure | Rain* | Wind** | Luminosity | Snow |
|---|---|---|---|---|---|---|---|
| 1777673434 | 12.78° C | 58% | 1020.9 hPa | 0 mm | - | - | - |
| 1777672833 | 12.22° C | 58% | 1020.9 hPa | 0 mm | - | - | - |
| 1777672233 | 12.22° C | 58% | 1020.9 hPa | 0 mm | - | - | - |
| 1777671633 | 12.78° C | 58% | 1020.8 hPa | 0 mm | - | - | - |
| 1777670433 | 13.33° C | 55% | 1020.9 hPa | 0 mm | - | - | - |
| 1777669834 | 13.33° C | 55% | 1020.8 hPa | 0 mm | - | - | - |
| 1777669233 | 13.33° C | 55% | 1020.8 hPa | 0 mm | - | - | - |
| 1777668633 | 13.89° C | 55% | 1020.9 hPa | 0 mm | - | - | - |
| 1777668034 | 14.44° C | 55% | 1020.7 hPa | 0 mm | - | - | - |
| 1777667433 | 15° C | 56% | 1020.8 hPa | 0 mm | - | - | - |
| 1777666834 | 15.56° C | 53% | 1021 hPa | 0 mm | - | - | - |
| 1777666233 | 16.11° C | 44% | 1020.8 hPa | 0 mm | - | - | - |
| 1777665634 | 16.67° C | 39% | 1021 hPa | 0 mm | - | - | - |
| 1777665033 | 17.78° C | 38% | 1020.9 hPa | 0 mm | - | - | - |
| 1777664433 | 17.78° C | 36% | 1020.7 hPa | 0 mm | - | - | - |
| 1777663834 | 18.33° C | 35% | 1020.6 hPa | 0 mm | - | - | - |
| 1777663234 | 18.89° C | 34% | 1020.6 hPa | 0 mm | - | - | - |
| 1777662634 | 19.44° C | 34% | 1020.8 hPa | 0 mm | - | - | - |
| 1777662033 | 20° C | 33% | 1020.7 hPa | 0 mm | - | - | - |
| 1777661433 | 20.56° C | 32% | 1020.7 hPa | 0 mm | - | - | - |
| 1777660833 | 20.56° C | 32% | 1020.7 hPa | 0 mm | - | - | - |
| 1777660233 | 21.11° C | 32% | 1020.8 hPa | 0 mm | - | - | - |
| 1777659633 | 21.11° C | 32% | 1020.6 hPa | 0 mm | - | - | - |
| 1777659033 | 21.67° C | 31% | 1020.7 hPa | 0 mm | - | - | - |
| 1777658433 | 21.67° C | 30% | 1020.5 hPa | 0 mm | - | - | - |
* Rain latest hour (hover to see other rain measurements)
** Current wind speed in m/s (hover to see current wind gust speed)